Погода в Камагуэе

Куба     21°22′59″N   77°54′51″W
темп.,
°C
ветер,
м/с
пор.,
м/с
влажн.,
%
обл.,
%
осадки,
мм/ч
давл.,
гПа
погр.,
м
14 мая, пт
пт1423:00+22вюв348316 8.3 101777
02:00+23всв23905 8.3 101664
05:00+23всв34960 0.0 1015114
08:00+24в35901 0.0 1016293
11:00+29всв34600 0.0 10171092
14:00+33св44453 0.0 10141916
17:00+31св665118 0.0 10131119
20:00+25св597759 0.0 1015398
15 мая, сб
сб1523:00+24всв378646 0.4 1017277
02:00+23всв259068 0.4 1016129
05:00+22всв259190 0.0 1015129
08:00+25всв37835 0.0 1016431
11:00+30всв45555 0.0 10171377
14:00+32св544416 0.0 10152252
17:00+31св65465 0.0 10141438
20:00+25св59745 0.0 1015475
16 мая, вс
вс1623:00+24всв39825 0.0 1017372
02:00+23всв378727 0.0 1015239
05:00+22всв389078 0.0 1015223
08:00+25всв487997 0.0 1017553
11:00+30в555469 0.0 10171764
14:00+29св5656100 0.1 1016913
17:00+30св785472 0.0 10141162
20:00+25св5977100 0.0 1016659
17 мая, пн
пн1723:00+24всв4108874 2.1 1017431
02:00+23всв4988100 2.1 1015333
05:00+23в499298 0.3 1014340
08:00+24в4889100 3.1 1016398
11:00+28всв5665100 1.6 10161208
14:00+27всв5569100 2.5 1016880
17:00+27всв4565100 0.0 1014607
20:00+24всв4882100 0.6 1015234
18 мая, вт
вт1823:00+23в4993100 1.9 1017287
02:00+22всв2594100 1.9 1015138
05:00+21в2697100 0.8 1014173
08:00+23вюв3791100 2.2 1015253
11:00+28вюв345833 0.5 10161115
14:00+31юв1248100 0.8 10141998
17:00+24св3582100 4.3 1014139
20:00+22всв4896100 29.9 1016370